H1 CPF 2 NER 2022 2 23 9 054 01 glonass140 H2 1903001 9140 44299 2022 2 23 0 0 0 2022 2 26 23 45 0 900 1 1 0 0 0 1 H9 10 0 59633 0.00000 0 9027316.504 -16773175.354 -16960213.285 10 0 59633 900.00000 0 8894966.726 -14556750.885 -18955491.330 10 0 59633 1800.00000 0 8934016.334 -12113516.612 -20582328.884 10 0 59633 2700.00000 0 9169618.819 -9504628.433 -21808993.257 10 0 59633 3600.00000 0 9615573.622 -6796344.501 -22611521.970 10 0 59633 4500.00000 0 10273610.951 -4057481.380 -22974197.497 10 0 59633 5400.00000 0 11133201.068 -1356769.634 -22889861.682 10 0 59633 6300.00000 0 12171897.438 1239781.419 -22360063.209 10 0 59633 7200.00000 0 13356200.481 3671400.187 -21395034.626 10 0 59633 8100.00000 0 14642906.632 5884845.843 -20013498.856 10 0 59633 9000.00000 0 15980886.674 7836382.493 -18242308.321 10 0 59633 9900.00000 0 17313218.863 9493352.177 -16115923.335 10 0 59633 10800.00000 0 18579587.081 10835281.418 -13675739.587 10 0 59633 11700.00000 0 19718842.667 11854475.616 -10969277.762 10 0 59633 12600.00000 0 20671621.309 12556077.244 -8049251.376 10 0 59633 13500.00000 0 21382903.864 12957586.705 -4972531.490 10 0 59633 14400.00000 0 21804412.164 13087867.556 -1799029.265 10 0 59633 15300.00000 0 21896737.862 12985679.803 1409480.772 10 0 59633 16200.00000 0 21631113.815 12697805.092 4590572.731 10 0 59633 17100.00000 0 20990752.826 12276844.933 7682391.940 10 0 59633 18000.00000 0 19971697.146 11778786.749 10624863.217 10 0 59633 18900.00000 0 18583143.103 11260442.182 13360860.657 10 0 59633 19800.00000 0 16847227.473 10776867.015 15837315.851 10 0 59633 20700.00000 0 14798285.103 10378872.364 18006242.957 10 0 59633 21600.00000 0 12481609.287 10110732.364 19825661.274 10 0 59633 22500.00000 0 9951767.071 10008184.801 21260398.241 10 0 59633 23400.00000 0 7270539.973 10096808.257 22282758.430 10 0 59633 24300.00000 0 4504575.581 10390843.337 22873046.885 10 0 59633 25200.00000 0 1722847.116 10892506.612 23019938.038 10 0 59633 26100.00000 0 -1005974.517 11591825.404 22720684.251 10 0 59633 27000.00000 0 -3616128.503 12466999.796 21981160.952 10 0 59633 27900.00000 0 -6047245.231 13485276.571 20815748.136 10 0 59633 28800.00000 0 -8246599.539 14604298.584 19247050.779 10 0 59633 29700.00000 0 -10171044.458 15773873.576 17305463.455 10 0 59633 30600.00000 0 -11788546.922 16938089.075 15028587.060 10 0 59633 31500.00000 0 -13079263.031 18037685.665 12460508.230 10 0 59633 32400.00000 0 -14036109.467 19012590.030 9650954.435 10 0 59633 33300.00000 0 -14664808.222 19804502.344 6654340.103 10 0 59633 34200.00000 0 -14983403.419 20359429.921 3528721.343 10 0 59633 35100.00000 0 -15021270.966 20630060.963 334678.708 10 0 59633 36000.00000 0 -14817662.790 20577878.503 -2865851.050 10 0 59633 36900.00000 0 -14419846.924 20174925.097 -6010771.865 10 0 59633 37800.00000 0 -13880921.702 19405143.150 -9039030.912 10 0 59633 38700.00000 0 -13257396.196 18265233.239 -11891803.528 10 0 59633 39600.00000 0 -12606638.930 16764992.830 -14513637.249 10 0 59633 40500.00000 0 -11984302.699 14927119.448 -16853532.551 10 0 59633 41400.00000 0 -11441834.447 12786484.710 -18865939.024 10 0 59633 42300.00000 0 -11024175.742 10388907.912 -20511647.184 10 0 59633 43200.00000 0 -10767751.513 7789478.766 -21758558.292 10 0 59633 44100.00000 0 -10698832.623 5050497.843 -22582316.821 10 0 59633 45000.00000 0 -10832342.250 2239119.542 -22966792.802 10 0 59633 45900.00000 0 -11171157.361 -575205.187 -22904404.245 10 0 59633 46800.00000 0 -11705935.713 -3323380.502 -22396272.833 10 0 59633 47700.00000 0 -12415476.594 -5939301.622 -21452209.271 10 0 59633 48600.00000 0 -13267600.961 -8362365.580 -20090528.026 10 0 59633 49500.00000 0 -14220514.437 -10539752.270 -18337694.486 10 0 59633 50400.00000 0 -15224596.059 -12428380.697 -16227810.968 10 0 59633 51300.00000 0 -16224537.338 -13996458.959 -13801951.297 10 0 59633 52200.00000 0 -17161741.075 -15224563.560 -11107356.823 10 0 59633 53100.00000 0 -17976877.999 -16106203.394 -8196509.803 10 0 59633 54000.00000 0 -18612492.451 -16647845.785 -5126102.720 10 0 59633 54900.00000 0 -19015546.007 -16868404.777 -1955924.355 10 0 59633 55800.00000 0 -19139790.553 -16798214.755 1252314.574 10 0 59633 56700.00000 0 -18947869.665 -16477534.532 4436192.233 10 0 59633 57600.00000 0 -18413058.784 -15954646.884 7533798.282 10 0 59633 58500.00000 0 -17520570.333 -15283635.598 10484943.371 10 0 59633 59400.00000 0 -16268368.537 -14521935.562 13232331.315 10 0 59633 60300.00000 0 -14667459.688 -13727760.622 15722670.783 10 0 59633 61200.00000 0 -12741645.901 -12957518.587 17907704.855 10 0 59633 62100.00000 0 -10526752.944 -12263322.778 19745138.980 10 0 59633 63000.00000 0 -8069364.636 -11690704.782 21199450.168 10 0 59633 63900.00000 0 -5425116.784 -11276624.109 22242562.811 10 0 59633 64800.00000 0 -2656621.487 -11047857.536 22854379.411 10 0 59633 65700.00000 0 168892.427 -11019834.699 23023157.256 10 0 59633 66600.00000 0 2982125.652 -11195967.712 22745724.961 10 0 59633 67500.00000 0 5714336.959 -11567501.968 22027535.726 10 0 59633 68400.00000 0 8299946.610 -12113893.677 20882556.887 10 0 59633 69300.00000 0 10679008.268 -12803697.979 19332998.202 10 0 59633 70200.00000 0 12799448.676 -13595930.379 17408884.011 10 0 59633 71100.00000 0 14618983.837 -14441844.803 15147477.041 10 0 59633 72000.00000 0 16106633.523 -15287054.223 12592564.293 10 0 59633 72900.00000 0 17243772.429 -16073905.589 9793617.923 10 0 59633 73800.00000 0 18024675.154 -16744010.014 6804846.300 10 0 59633 74700.00000 0 18456532.921 -17240822.437 3684152.785 10 0 59633 75600.00000 0 18558941.821 -17512162.585 492021.505 10 0 59633 76500.00000 0 18362884.203 -17512571.147 -2709648.914 10 0 59633 77400.00000 0 17909245.995 -17205401.563 -5858741.399 10 0 59633 78300.00000 0 17246932.200 -16564558.557 -8894123.304 10 0 59633 79200.00000 0 16430659.744 -15575809.035 -11756832.793 10 0 59633 80100.00000 0 15518520.545 -14237608.700 -14391225.485 10 0 59633 81000.00000 0 14569417.439 -12561407.834 -16746058.879 10 0 59633 81900.00000 0 13640481.134 -10571421.462 -18775493.204 10 0 59633 82800.00000 0 12784577.271 -8303871.586 -20439988.827 10 0 59633 83700.00000 0 12048008.997 -5805731.251 -21707082.451 10 0 59633 84600.00000 0 11468512.321 -3133021.147 -22552026.629 10 0 59633 85500.00000 0 11073629.280 -348728.391 -22958279.708 10 0 59634 0.00000 0 10879528.072 2479566.761 -22917836.260 10 0 59634 900.00000 0 10890320.449 5282259.869 -22431390.953 10 0 59634 1800.00000 0 11097905.950 7990376.670 -21508332.248 10 0 59634 2700.00000 0 11482349.717 10538207.761 -20166565.433 10 0 59634 3600.00000 0 12012778.638 12865810.196 -18432167.776 10 0 59634 4500.00000 0 12648758.011 14921273.162 -16338882.180 10 0 59634 5400.00000 0 13342090.549 16662652.968 -13927458.845 10 0 59634 6300.00000 0 14038961.314 18059496.618 -11244857.676 10 0 59634 7200.00000 0 14682337.279 19093890.455 -8343327.245 10 0 59634 8100.00000 0 15214519.120 19760990.566 -5279378.721 10 0 59634 9000.00000 0 15579736.237 20069013.682 -2112675.528 10 0 59634 9900.00000 0 15726674.088 20038690.173 1095138.555 10 0 59634 10800.00000 0 15610825.845 19702203.823 4281648.944 10 0 59634 11700.00000 0 15196568.014 19101664.808 7384892.782 10 0 59634 12600.00000 0 14458871.592 18287182.052 10344569.584 10 0 59634 13500.00000 0 13384576.129 17314617.997 13103215.719 10 0 59634 14400.00000 0 11973172.753 16243121.857 15607319.531 10 0 59634 15300.00000 0 10237063.239 15132546.376 17808355.358 10 0 59634 16200.00000 0 8201284.347 14040857.454 19663716.860 10 0 59634 17100.00000 0 5902709.031 13021645.611 21137532.383 10 0 59634 18000.00000 0 3388757.960 12121843.475 22201347.607 10 0 59634 18900.00000 0 715674.843 11379744.197 22834663.625 10 0 59634 19800.00000 0 -2053563.167 10823402.719 23025321.327 10 0 59634 20700.00000 0 -4851613.883 10469485.605 22769725.924 10 0 59634 21600.00000 0 -7609320.153 10322616.240 22072908.249 10 0 59634 22500.00000 0 -10258337.233 10375241.688 20948422.342 10 0 59634 23400.00000 0 -12733729.975 10608025.900 19418081.596 10 0 59634 24300.00000 0 -14976433.833 10990752.245 17511538.461 10 0 59634 25200.00000 0 -16935479.148 11483697.370 15265715.378 10 0 59634 26100.00000 0 -18569887.730 12039418.912 12724097.226 10 0 59634 27000.00000 0 -19850164.123 12604882.378 9935898.060 10 0 59634 27900.00000 0 -20759320.396 13123838.321 6955117.227 10 0 59634 28800.00000 0 -21293392.320 13539350.330 3839502.258 10 0 59634 29700.00000 0 -21461425.738 13796367.735 649437.761 10 0 59634 30600.00000 0 -21284933.833 13844234.752 -2553218.844 10 0 59634 31500.00000 0 -20796847.950 13639030.088 -5706332.496 10 0 59634 32400.00000 0 -20040005.823 13145637.744 -8748693.645 10 0 59634 33300.00000 0 -19065240.509 12339460.709 -11621206.070 10 0 59634 34200.00000 0 -17929150.107 11207703.988 -14268036.075 10 0 59634 35100.00000 0 -16691641.958 9750171.237 -16637700.540 10 0 59634 36000.00000 0 -15413354.516 7979539.546 -18684072.400 10 0 59634 36900.00000 0 -14153065.439 5921098.795 -20367283.580 10 0 59634 37800.00000 0 -12965195.045 3611964.392 -21654507.556 10 0 59634 38700.00000 0 -11897510.385 1099794.279 -22520605.895 10 0 59634 39600.00000 0 -10989126.823 -1558937.910 -22948625.783 10 0 59634 40500.00000 0 -10268891.529 -4301043.049 -22930138.423 10 0 59634 41400.00000 0 -9754217.217 -7059003.750 -22465411.187 10 0 59634 42300.00000 0 -9450415.571 -9763549.891 -21563409.640 10 0 59634 43200.00000 0 -9350558.629 -12346315.719 -20241628.797 10 0 59634 44100.00000 0 -9435874.068 -14742467.989 -18525756.361 10 0 59634 45000.00000 0 -9676657.645 -16893195.510 -16449174.036 10 0 59634 45900.00000 0 -10033663.970 -18747956.086 -14052306.346 10 0 59634 46800.00000 0 -10459916.316 -20266386.876 -11381829.495 10 0 59634 47700.00000 0 -10902858.151 -21419798.185 -8489755.964 10 0 59634 48600.00000 0 -11306754.340 -22192188.386 -5432413.137 10 0 59634 49500.00000 0 -11615239.205 -22580737.948 -2269336.577 10 0 59634 50400.00000 0 -11773902.289 -22595762.714 937899.396 10 0 59634 51300.00000 0 -11732801.123 -22260129.641 4126889.954 10 0 59634 52200.00000 0 -11448793.500 -21608161.155 7235622.232 10 0 59634 53100.00000 0 -10887589.718 -20684075.880 10203687.086 10 0 59634 54000.00000 0 -10025437.410 -19540033.136 12973455.876 10 0 59634 54900.00000 0 -8850367.461 -18233865.016 15491198.970 10 0 59634 55800.00000 0 -7362948.367 -16826592.717 17708124.172 10 0 59634 56700.00000 0 -5576517.291 -15379832.301 19581315.369 10 0 59634 57600.00000 0 -3516878.108 -13953199.096 21074554.008 10 0 59634 58500.00000 0 -1221479.083 -12601819.391 22159008.535 10 0 59634 59400.00000 0 1261895.681 -11374052.923 22813779.779 10 0 59634 60300.00000 0 3876866.983 -10309520.324 23026293.069 10 0 59634 61200.00000 0 6560561.654 -9437516.653 22792530.705 10 0 59634 62100.00000 0 9245987.819 -8775875.777 22117101.333 10 0 59634 63000.00000 0 11864586.985 -8330331.554 21013145.570 10 0 59634 63900.00000 0 14348858.428 -8094401.247 19502080.002 10 0 59634 64800.00000 0 16634948.554 -8049794.969 17613184.445 10 0 59634 65700.00000 0 18665099.290 -8167333.343 15383039.975 10 0 59634 66600.00000 0 20389855.090 -8408334.592 12854827.913 10 0 59634 67500.00000 0 21769937.989 -8726412.808 10077502.398 10 0 59634 68400.00000 0 22777713.491 -9069612.060 7104851.548 10 0 59634 69300.00000 0 23398186.718 -9382786.870 3994464.488 10 0 59634 70200.00000 0 23629487.490 -9610129.111 806623.401 10 0 59634 71100.00000 0 23482824.079 -9697734.953 -2396858.640 10 0 59634 72000.00000 0 22981907.332 -9596103.489 -5553831.866 10 0 59634 72900.00000 0 22161868.991 -9262461.209 -8603013.119 10 0 59634 73800.00000 0 21067719.157 -8662813.406 -11485175.001 10 0 59634 74700.00000 0 19752407.261 -7773634.855 -14144297.523 10 0 59634 75600.00000 0 18274567.592 -6583126.947 -16528659.736 10 0 59634 76500.00000 0 16696043.800 -5091986.502 -18591849.778 10 0 59634 77400.00000 0 15079296.179 -3313651.923 -20293673.349 10 0 59634 78300.00000 0 13484800.546 -1274014.191 -21600942.582 10 0 59634 79200.00000 0 11968547.949 989397.363 -22488129.606 10 0 59634 80100.00000 0 10579750.304 3428722.374 -22937871.641 10 0 59634 81000.00000 0 9358848.402 5987517.024 -22941317.348 10 0 59634 81900.00000 0 8335906.091 8602870.425 -22498307.220 10 0 59634 82800.00000 0 7529458.178 11207802.517 -21617383.908 10 0 59634 83700.00000 0 6945860.503 13733844.230 -20315631.765 10 0 59634 84600.00000 0 6579169.380 16113692.669 -18618348.115 10 0 59634 85500.00000 0 6411555.202 18283830.474 -16558552.260 10 0 59635 0.00000 0 6414232.266 20186999.686 -14176341.656 10 0 59635 900.00000 0 6548864.839 21774427.412 -11518106.370 10 0 59635 1800.00000 0 6769389.074 23007707.321 -8635620.627 10 0 59635 2700.00000 0 7024172.552 23860261.498 -5585025.314 10 0 59635 3600.00000 0 7258418.732 24318318.843 -2425725.158 10 0 59635 4500.00000 0 7416713.053 24381370.487 780778.144 10 0 59635 5400.00000 0 7445601.465 24062083.739 3972092.780 10 0 59635 6300.00000 0 7296090.863 23385679.403 7086159.129 10 0 59635 7200.00000 0 6925964.511 22388800.011 10062462.547 10 0 59635 8100.00000 0 6301813.694 21117918.161 12843212.375 10 0 59635 9000.00000 0 5400699.181 19627353.336 15374463.782 10 0 59635 9900.00000 0 4211372.144 17976981.825 17607160.573 10 0 59635 10800.00000 0 2735003.022 16229736.809 19498079.136 10 0 59635 11700.00000 0 985387.641 14449003.867 21010656.031 10 0 59635 12600.00000 0 -1011378.014 12696020.985 22115684.189 10 0 59635 13500.00000 0 -3217740.936 11027391.191 22791865.604 10 0 59635 14400.00000 0 -5586017.298 9492810.738 23026211.106 10 0 59635 15300.00000 0 -8060147.007 8133106.286 22814280.761 10 0 59635 16200.00000 0 -10577804.465 6978661.342 22160261.260 10 0 59635 17100.00000 0 -13072778.999 6048295.884 21076879.535 10 0 59635 18000.00000 0 -15477527.276 5348644.328 19585154.582 10 0 59635 18900.00000 0 -17725793.184 4874056.346 17713992.267 10 0 59635 19800.00000 0 -19755187.795 4607023.535 15499630.482 10 0 59635 20700.00000 0 -21509623.381 4519113.335 12984944.705 10 0 59635 21600.00000 0 -22941501.398 4572370.555 10218626.500 10 0 59635 22500.00000 0 -24013564.123 4721127.553 7254249.811 10 0 59635 23400.00000 0 -24700333.173 4914147.010 4149242.218 10 0 59635 24300.00000 0 -24989075.064 5097007.265 963780.231 10 0 59635 25200.00000 0 -24880253.291 5214629.763 -2240370.714 10 0 59635 26100.00000 0 -24387447.647 5213841.997 -5401049.403 10 0 59635 27000.00000 0 -23536743.606 5045867.473 -8456902.286 10 0 59635 27900.00000 0 -22365616.754 4668636.996 -11348573.892 10 0 59635 28800.00000 0 -20921358.384 4048822.766 -14019860.899 10 0 59635 29700.00000 0 -19259107.703 3163508.198 -16418807.248 10 0 59635 30600.00000 0 -17439572.638 2001421.405 -18498718.709 10 0 59635 31500.00000 0 -15526534.469 563678.603 -20219076.782 10 0 59635 32400.00000 0 -13584240.596 -1135995.937 -21546333.831 10 0 59635 33300.00000 0 -11674794.516 -3071584.744 -22454573.620 10 0 59635 34200.00000 0 -9855652.365 -5205615.674 -22926023.944 10 0 59635 35100.00000 0 -8177330.838 -7490490.924 -22951410.953 10 0 59635 36000.00000 0 -6681422.533 -9870252.664 -22530147.790 10 0 59635 36900.00000 0 -5399001.905 -12282712.738 -21670353.274 10 0 59635 37800.00000 0 -4349488.551 -14661858.426 -20388699.758 10 0 59635 38700.00000 0 -3540015.262 -16940434.344 -18710092.510 10 0 59635 39600.00000 0 -2965327.044 -19052592.665 -16667186.447 10 0 59635 40500.00000 0 -2608214.659 -20936500.757 -14299749.308 10 0 59635 41400.00000 0 -2440463.556 -22536796.771 -11653883.538 10 0 59635 42300.00000 0 -2424277.055 -23806789.823 -8781122.263 10 0 59635 43200.00000 0 -2514112.327 -24710312.207 -5737417.426 10 0 59635 44100.00000 0 -2658850.010 -25223145.634 -2582040.477 10 0 59635 45000.00000 0 -2804204.093 -25333961.676 623581.889 10 0 59635 45900.00000 0 -2895268.390 -25044737.289 3817073.212 10 0 59635 46800.00000 0 -2879090.294 -24370628.703 6936329.374 10 0 59635 47700.00000 0 -2707161.525 -23339310.028 9920732.450 10 0 59635 48600.00000 0 -2337719.490 -21989805.666 12712331.899 10 0 59635 49500.00000 0 -1737761.187 -20370866.872 15256969.751 10 0 59635 50400.00000 0 -884684.277 -18538961.891 17505327.752 10 0 59635 51300.00000 0 232514.049 -16555964.889 19413876.580 10 0 59635 52200.00000 0 1612530.870 -14486641.062 20945709.495 10 0 59635 53100.00000 0 3241573.546 -12396033.233 22071245.282 10 0 59635 54000.00000 0 5093705.710 -10346858.695 22768788.205 10 0 59635 54900.00000 0 7131708.949 -8397023.977 23024935.457 10 0 59635 55800.00000 0 9308424.565 -6597359.853 22834825.464 10 0 59635 56700.00000 0 11568520.181 -4989669.287 22202223.311 10 0 59635 57600.00000 0 13850608.623 -3605167.804 21139442.338 10 0 59635 58500.00000 0 16089631.996 -2463379.477 19667103.806 10 0 59635 59400.00000 0 18219413.146 -1571532.798 17813739.225 10 0 59635 60300.00000 0 20175269.722 -924480.178 15615242.608 10 0 59635 61200.00000 0 21896583.258 -505143.290 13114182.595 10 0 59635 62100.00000 0 23329217.371 -285464.778 10358986.826 10 0 59635 63000.00000 0 24427685.114 -227825.924 7403013.338 10 0 59635 63900.00000 0 25156975.436 -286870.542 4303526.060 10 0 59635 64800.00000 0 25493962.624 -411658.330 1120593.355 10 0 59635 65700.00000 0 25428339.563 -548056.982 -2084069.760 10 0 59635 66600.00000 0 24963035.232 -641272.226 -5248293.639 10 0 59635 67500.00000 0 24114098.250 -638408.798 -8310657.464 10 0 59635 68400.00000 0 22910050.474 -490953.846 -11211680.827 10 0 59635 69300.00000 0 21390736.823 -157077.206 -13894980.114 10 0 59635 70200.00000 0 19605718.673 396349.580 -16308367.033 10 0 59635 71100.00000 0 17612277.255 1192102.035 -18404867.644 10 0 59635 72000.00000 0 15473110.076 2241390.500 -20143641.678 10 0 59635 72900.00000 0 13253816.222 3543139.792 -21490783.909 10 0 59635 73800.00000 0 11020275.351 5083793.031 -22419991.654 10 0 59635 74700.00000 0 8836029.811 6837649.868 -22913084.913 10 0 59635 75600.00000 0 6759779.150 8767726.885 -22960368.640 10 0 59635 76500.00000 0 4843091.665 10827105.867 -22560829.573 10 0 59635 77400.00000 0 3128428.658 12960714.894 -21722163.255 10 0 59635 78300.00000 0 1647563.863 15107468.847 -20460630.157 10 0 59635 79200.00000 0 420463.971 17202680.449 -18800743.150 10 0 59635 80100.00000 0 -545323.237 19180641.177 -16774791.970 10 0 59635 81000.00000 0 -1254748.139 20977263.922 -14422213.611 10 0 59635 81900.00000 0 -1724803.541 22532676.295 -11788820.765 10 0 59635 82800.00000 0 -1983554.255 23793655.269 -8925903.561 10 0 59635 83700.00000 0 -2068694.397 24715800.365 -5889222.518 10 0 59635 84600.00000 0 -2025694.927 25265353.612 -2737913.040 10 0 59635 85500.00000 0 -1905621.464 25420589.432 466676.197 10 0 59636 0.00000 0 -1762716.504 25172716.057 3662186.951 10 0 59636 900.00000 0 -1651849.993 24526250.659 6786474.414 10 0 59636 1800.00000 0 -1625947.826 23498853.512 9778820.279 10 0 59636 2700.00000 0 -1733508.090 22120628.609 12581117.251 10 0 59636 3600.00000 0 -2016311.134 20432921.408 15138997.195 10 0 59636 4500.00000 0 -2507420.660 18486665.191 17402882.602 10 0 59636 5400.00000 0 -3229560.378 16340346.242 19328941.043 10 0 59636 6300.00000 0 -4193934.611 14057673.589 20879924.863 10 0 59636 7200.00000 0 -5399542.228 11705050.961 22025880.846 10 0 59636 8100.00000 0 -6833012.551 9348956.158 22744717.393 10 0 59636 9000.00000 0 -8468970.085 7053336.274 23022619.606 10 0 59636 9900.00000 0 -10270912.883 4877126.066 22854305.444 10 0 59636 10800.00000 0 -12192568.321 2871991.126 22243119.114 10 0 59636 11700.00000 0 -14179670.422 1080387.869 21200960.612 10 0 59636 12600.00000 0 -16172085.538 -465980.785 19748053.167 10 0 59636 13500.00000 0 -18106198.972 -1747251.713 17912553.081 10 0 59636 14400.00000 0 -19917464.350 -2755986.286 15730009.083 10 0 59636 15300.00000 0 -21543010.625 -3497230.514 13242681.038 10 0 59636 16200.00000 0 -22924199.073 -3988049.251 10498730.256 10 0 59636 17100.00000 0 -24009024.389 -4256554.764 7551296.080 10 0 59636 18000.00000 0 -24754260.026 -4340470.849 4457475.680 10 0 59636 18900.00000 0 -25127258.212 -4285293.082 1277225.949 10 0 59636 19800.00000 0 -25107329.076 -4142122.698 -1927791.976 10 0 59636 20700.00000 0 -24686640.519 -3965265.390 -5095403.551 10 0 59636 21600.00000 0 -23870600.280 -3809696.427 -8164124.240 10 0 59636 22500.00000 0 -22677703.088 -3728499.331 -11074352.203 10 0 59636 23400.00000 0 -21138848.168 -3770386.711 -13769526.919 10 0 59636 24300.00000 0 -19296154.491 -3977408.709 -16197231.058 10 0 59636 25200.00000 0 -17201322.237 -4382946.774 -18310213.867 10 0 59636 26100.00000 0 -14913608.096 -5010078.716 -20067315.793 10 0 59636 27000.00000 0 -12497498.205 -5870385.464 -21434276.015 10 0 59636 27900.00000 0 -10020175.303 -6963251.524 -22384406.805 10 0 59636 28800.00000 0 -7548885.463 -8275690.323 -22899121.165 10 0 59636 29700.00000 0 -5148313.958 -9782703.597 -22968303.013 10 0 59636 30600.00000 0 -2878079.563 -11448161.454 -22590512.274 10 0 59636 31500.00000 0 -790451.785 -13226167.622 -21773020.255 10 0 59636 32400.00000 0 1071613.853 -15062853.818 -20531674.132 10 0 59636 33300.00000 0 2676040.612 -16898528.838 -18890592.582 10 0 59636 34200.00000 0 4002730.287 -18670092.603 -16881698.050 10 0 59636 35100.00000 0 5044152.460 -20313613.932 -14544094.423 10 0 59636 36000.00000 0 5805399.390 -21766963.546 -11923302.109 10 0 59636 36900.00000 0 6303705.325 -22972391.059 -9070365.581 10 0 59636 37800.00000 0 6567451.896 -23878936.992 -6040851.230 10 0 59636 38700.00000 0 6634703.171 -24444577.598 -2893755.683 10 0 59636 39600.00000 0 6551334.010 -24638011.625 309653.078 10 0 59636 40500.00000 0 6368832.700 -24440013.439 3507038.208 10 0 59636 41400.00000 0 6141872.662 -23844295.450 6636215.552 10 0 59636 42300.00000 0 5925757.610 -22857843.796 9636369.367 10 0 59636 43200.00000 0 5773849.669 -21500713.695 12449237.795 10 0 59636 44100.00000 0 5735090.254 -19805293.782 15020244.553 10 0 59636 45000.00000 0 5851719.111 -17815071.171 17299554.670 10 0 59636 45900.00000 0 6157288.070 -15582949.745 19243034.171 10 0 59636 46800.00000 0 6675053.202 -13169192.578 20813095.785 10 0 59636 47700.00000 0 7416812.732 -10639074.748 21979415.314 10 0 59636 48600.00000 0 8382239.191 -8060344.219 22719506.048 10 0 59636 49500.00000 0 9558733.481 -5500595.879 23019141.472 10 0 59636 50400.00000 0 10921806.754 -3024666.980 22872619.311 10 0 59636 51300.00000 0 12435974.197 -692160.709 22282862.903 10 0 59636 52200.00000 0 14056123.712 1444800.987 21261358.702 10 0 59636 53100.00000 0 15729302.955 3343503.781 19827931.530 10 0 59636 54000.00000 0 17396851.016 4972168.484 18010361.911 10 0 59636 54900.00000 0 18996786.811 6311017.958 15843852.536 10 0 59636 55800.00000 0 20466355.536 7352840.570 13370353.519 10 0 59636 56700.00000 0 21744627.827 8103028.002 10637758.628 10 0 59636 57600.00000 0 22775043.817 8579086.886 7698987.009 10 0 59636 58500.00000 0 23507796.176 8809645.324 4610967.292 10 0 59636 59400.00000 0 23901952.552 8832996.425 1433542.830 10 0 59636 60300.00000 0 23927228.280 8695240.255 -1771681.456 10 0 59636 61200.00000 0 23565334.462 8448102.470 -4942528.664 10 0 59636 62100.00000 0 22810843.943 8146521.631 -8017453.203 10 0 59636 63000.00000 0 21671537.687 7846107.085 -10936734.505 10 0 59636 63900.00000 0 20168215.657 7600574.981 -13643637.815 10 0 59636 64800.00000 0 18333978.650 7459271.115 -16085519.321 10 0 59636 65700.00000 0 16213009.711 7464885.915 -18214853.885 10 0 59636 66600.00000 0 13858904.808 7651458.897 -19990164.941 10 0 59636 67500.00000 0 11332621.323 8042757.952 -21376838.173 10 0 59636 68400.00000 0 8700129.060 8651103.152 -22347802.756 10 0 59636 69300.00000 0 6029861.058 9476686.064 -22884066.432 10 0 59636 70200.00000 0 3390069.959 10507414.767 -22975093.609 10 0 59636 71100.00000 0 846199.721 11719292.626 -22619018.611 10 0 59636 72000.00000 0 -1541617.927 13077316.209 -21822689.384 10 0 59636 72900.00000 0 -3720838.106 14536855.786 -20601540.264 10 0 59636 73800.00000 0 -5648453.808 16045461.257 -18979295.740 10 0 59636 74700.00000 0 -7292542.013 17545018.060 -16987510.494 10 0 59636 75600.00000 0 -8633340.753 18974162.570 -14664954.391 10 0 59636 76500.00000 0 -9663812.716 20270855.147 -12056854.191 10 0 59636 77400.00000 0 -10389672.624 21375001.986 -9214006.972 10 0 59636 78300.00000 0 -10828878.569 22231014.623 -6191782.902 10 0 59636 79200.00000 0 -11010610.250 22790198.411 -3049037.467 10 0 59636 80100.00000 0 -10973778.913 23012868.483 153044.659 10 0 59636 81000.00000 0 -10765133.830 22870103.333 3352150.522 10 0 59636 81900.00000 0 -10437047.231 22345061.681 6486060.107 10 0 59636 82800.00000 0 -10045073.107 21433807.010 9493862.932 10 0 59636 83700.00000 0 -9645384.699 20145605.237 12317145.594 10 0 59636 84600.00000 0 -9292200.200 18502683.354 14901126.654 10 0 59636 85500.00000 0 -9035306.222 16539459.789 17195716.614 99